Location: Bosdarros
(43.2167°N, 0.3667°W)
Time: 11:21:58
(UTC+00:00)

FENGYUN 1C DEB - Pass Details

Date: 23 October 2021
Orbit: 805 x 871 km, 98.8° (Epoch: 26 November)

Event Time Altitude Azimuth Distance (km) Brightness Sun altitude
Exits shadow 17:37:25 - 92° (E) 2,646 ? -6.5°
Reaches altitude 10° 17:38:44 10° 80° (E) 2,390 ? -6.7°
Maximum altitude 17:40:51 13° 56° (NE) 2,219 ? -7.1°
Drops below altitude 10° 17:42:59 10° 32° (NNE) 2,401 ? -7.5°
Sets 17:46:46 0° 5° (N) 3,346 ? -8.1°
